Location: Little Baddow
(51.7333°N, 0.5667°E)
Time: 07:19:32
(UTC+00:00)

SL-16 R/B - Pass Details

Date: 08 November 2025
Orbit: 840 x 847 km, 71.0° (Epoch: 11 December)

Event Time Altitude Azimuth Distance (km) Brightness Sun altitude
Rises 06:14:15 0° 191° (SSW) 3,395 5.4 -8.1°
Reaches altitude 10° 06:16:44 10° 187° (S) 2,465 4.8 -7.7°
Maximum altitude 06:22:12 52° 112° (ESE) 1,042 3.2 -6.9°
Drops below altitude 10° 06:27:43 10° 37° (NE) 2,483 4.9 -6.1°
Sets 06:30:13 0° 33° (NNE) 3,422 5.5 -5.7°
